time, Switch, Flow(0), Analog(2)
yyyy/mm/dd HH:MM:SS.fff, True=FILTERED|False=TOTAL, L/min, V
2023/06/22 04:00:01.440, True, 4.382, 0.125124
2023/06/22 04:00:01.945, True, 4.306, 0.127718
2023/06/22 04:00:02.449, True, 4.640, 0.129549
2023/06/22 04:00:02.952, True, 4.314, 0.125200
2023/06/22 04:00:03.449, True, 4.045, 0.125582
2023/06/22 04:00:03.953, True, 3.983, 0.124743
2023/06/22 04:00:04.456, True, 2.648, 0.125811
2023/06/22 04:00:04.953, True, 2.025, 0.126726
2023/06/22 04:00:05.457, True, 1.656, 0.126421
2023/06/22 04:00:05.961, True, 1.657, 0.127031
2023/06/22 04:00:06.457, True, 1.687, 0.127565
2023/06/22 04:00:06.960, True, 1.659, 0.126879
2023/06/22 04:00:07.465, True, 1.657, 0.125887
2023/06/22 04:00:07.961, True, 1.349, 0.126726
2023/06/22 04:00:08.465, True, 1.989, 0.125963
2023/06/22 04:00:08.969, True, 1.655, 0.126726
2023/06/22 04:00:09.465, True, 1.685, 0.123827
2023/06/22 04:00:09.968, True, 1.660, 0.125505
2023/06/22 04:00:10.472, True, 1.656, 0.125963
2023/06/22 04:00:10.968, True, 1.684, 0.126955
2023/06/22 04:00:11.473, True, 1.659, 0.125048
2023/06/22 04:00:11.977, True, 1.657, 0.127413
2023/06/22 04:00:12.472, True, 1.685, 0.126802
2023/06/22 04:00:12.977, True, 1.658, 0.127947
2023/06/22 04:00:13.481, True, 1.658, 0.125811
2023/06/22 04:00:13.977, True, 1.687, 0.125277
2023/06/22 04:00:14.480, True, 1.658, 0.125429
2023/06/22 04:00:14.985, True, 1.655, 0.126040
2023/06/22 04:00:15.481, True, 1.685, 0.128710
2023/06/22 04:00:15.984, True, 1.659, 0.127031
2023/06/22 04:00:16.489, True, 1.660, 0.126879
2023/06/22 04:00:16.985, True, 2.018, 0.127489
2023/06/22 04:00:17.488, True, 1.661, 0.124971
2023/06/22 04:00:17.992, True, 1.324, 0.127184
2023/06/22 04:00:18.489, True, 1.688, 0.126802
2023/06/22 04:00:18.993, True, 1.657, 0.125429
2023/06/22 04:00:19.497, True, 1.657, 0.124971
2023/06/22 04:00:20.001, True, 1.658, 0.126497
2023/06/22 04:00:20.496, True, 1.686, 0.126116
2023/06/22 04:00:21.001, True, 1.657, 0.125658
2023/06/22 04:00:21.497, True, 1.348, 0.125963
2023/06/22 04:00:22.001, True, 1.658, 0.127947
2023/06/22 04:00:22.504, True, 1.659, 0.125963
2023/06/22 04:00:23.000, True, 1.685, 0.126345
2023/06/22 04:00:23.504, True, 1.657, 0.122988
2023/06/22 04:00:24.008, True, 1.661, 0.125200
2023/06/22 04:00:24.513, True, 1.658, 0.125811
2023/06/22 04:00:25.009, True, 1.682, 0.125353
2023/06/22 04:00:25.513, True, 1.659, 0.123217
2023/06/22 04:00:26.017, True, 1.658, 0.125505
2023/06/22 04:00:26.512, True, 1.686, 0.125200
2023/06/22 04:00:27.016, True, 1.988, 0.126421
2023/06/22 04:00:27.521, True, 1.657, 0.127718
2023/06/22 04:00:28.016, True, 1.688, 0.125200
2023/06/22 04:00:28.521, True, 1.655, 0.127260
2023/06/22 04:00:29.025, True, 1.661, 0.126268
2023/06/22 04:00:29.521, True, 1.682, 0.124437
2023/06/22 04:00:30.025, True, 1.658, 0.123598
2023/06/22 04:00:30.528, True, 1.992, 0.126574
2023/06/22 04:00:31.033, True, 1.657, 0.126497
2023/06/22 04:00:31.529, True, 1.349, 0.125963
2023/06/22 04:00:32.032, True, 1.659, 0.124743
2023/06/22 04:00:32.529, True, 1.347, 0.125277
2023/06/22 04:00:33.033, True, 1.657, 0.126421
2023/06/22 04:00:33.536, True, 1.659, 0.126116
2023/06/22 04:00:34.032, True, 1.349, 0.124971
2023/06/22 04:00:34.537, True, 1.656, 0.125963
2023/06/22 04:00:35.041, True, 1.991, 0.126421
2023/06/22 04:00:35.536, True, 1.349, 0.126116
2023/06/22 04:00:36.041, True, 1.656, 0.126879
2023/06/22 04:00:36.544, True, 1.658, 0.126802
2023/06/22 04:00:37.041, True, 1.685, 0.127260
2023/06/22 04:00:37.545, True, 1.988, 0.126879
2023/06/22 04:00:38.049, True, 1.660, 0.125353
2023/06/22 04:00:38.545, True, 1.682, 0.126268
2023/06/22 04:00:39.049, True, 1.659, 0.129549
2023/06/22 04:00:39.553, True, 1.658, 0.127871
2023/06/22 04:00:40.056, True, 1.660, 0.127031
2023/06/22 04:00:40.553, True, 2.019, 0.126268
2023/06/22 04:00:41.057, True, 1.659, 0.126726
2023/06/22 04:00:41.561, True, 1.656, 0.128481
2023/06/22 04:00:42.057, True, 1.685, 0.125353
2023/06/22 04:00:42.561, True, 1.327, 0.127337
2023/06/22 04:00:43.065, True, 1.660, 0.128786
2023/06/22 04:00:43.561, True, 1.684, 0.128252
2023/06/22 04:00:44.065, True, 1.989, 0.128176
2023/06/22 04:00:44.569, True, 1.328, 0.129091
2023/06/22 04:00:45.065, True, 1.682, 0.130312
2023/06/22 04:00:45.568, True, 1.658, 0.130465
2023/06/22 04:00:46.073, True, 1.660, 0.132601
2023/06/22 04:00:46.576, True, 1.987, 0.130922
2023/06/22 04:00:47.072, True, 1.685, 0.132906
2023/06/22 04:00:47.576, True, 1.658, 0.134051
2023/06/22 04:00:48.081, True, 1.660, 0.133059
2023/06/22 04:00:48.576, True, 1.683, 0.131380
2023/06/22 04:00:49.080, True, 1.658, 0.131991
2023/06/22 04:00:49.585, True, 1.659, 0.132067
2023/06/22 04:00:50.081, True, 1.684, 0.134432
2023/06/22 04:00:50.585, True, 1.659, 0.134127
2023/06/22 04:00:51.089, True, 1.659, 0.133440
2023/06/22 04:00:51.593, True, 1.655, 0.133288
2023/06/22 04:00:52.088, True, 1.684, 0.133669
2023/06/22 04:00:52.593, True, 1.660, 0.135119
2023/06/22 04:00:53.096, True, 1.659, 0.133822
2023/06/22 04:00:53.592, True, 1.683, 0.134051
2023/06/22 04:00:54.097, True, 1.988, 0.135042
2023/06/22 04:00:54.593, True, 1.348, 0.134813
2023/06/22 04:00:55.097, True, 1.660, 0.133211
2023/06/22 04:00:55.600, True, 1.991, 0.136797
2023/06/22 04:00:56.097, True, 1.684, 0.134585
2023/06/22 04:00:56.601, True, 1.656, 0.136416
2023/06/22 04:00:57.104, True, 1.658, 0.135805
2023/06/22 04:00:57.601, True, 1.686, 0.135653
2023/06/22 04:00:58.105, True, 1.326, 0.134432
2023/06/22 04:00:58.608, True, 1.657, 0.134127
2023/06/22 04:00:59.105, True, 1.684, 0.135500
2023/06/22 04:00:59.608, True, 1.657, 0.136339
2023/06/22 04:01:00.113, True, 1.660, 0.136416
2023/06/22 04:01:00.608, True, 1.683, 0.136263
2023/06/22 04:01:01.113, True, 1.659, 0.136416
2023/06/22 04:01:01.616, True, 1.659, 0.134737
2023/06/22 04:01:02.121, True, 1.660, 0.136110
2023/06/22 04:01:02.617, True, 1.682, 0.136568
2023/06/22 04:01:03.120, True, 1.658, 0.140002
2023/06/22 04:01:03.625, True, 1.660, 0.141756
2023/06/22 04:01:04.121, True, 1.682, 0.139773
2023/06/22 04:01:04.625, True, 1.328, 0.137942
2023/06/22 04:01:05.128, True, 1.990, 0.137713
2023/06/22 04:01:05.625, True, 1.682, 0.138323
2023/06/22 04:01:06.129, True, 1.659, 0.139696
2023/06/22 04:01:06.632, True, 1.658, 0.139391
2023/06/22 04:01:07.129, True, 1.685, 0.138170
2023/06/22 04:01:07.632, True, 1.658, 0.137636
2023/06/22 04:01:08.129, True, 1.684, 0.140307
2023/06/22 04:01:08.633, True, 1.660, 0.139544
2023/06/22 04:01:09.137, True, 1.656, 0.140230
2023/06/22 04:01:09.633, True, 1.687, 0.138247
2023/06/22 04:01:10.137, True, 1.657, 0.137331
2023/06/22 04:01:10.640, True, 1.659, 0.139010
2023/06/22 04:01:11.136, True, 1.681, 0.139773
2023/06/22 04:01:11.641, True, 1.660, 0.137636
2023/06/22 04:01:12.144, True, 1.656, 0.136263
2023/06/22 04:01:12.640, True, 1.688, 0.139849
2023/06/22 04:01:13.144, True, 1.656, 0.139086
2023/06/22 04:01:13.649, True, 1.657, 0.138476
2023/06/22 04:01:14.145, True, 1.685, 0.137102
2023/06/22 04:01:14.649, True, 1.660, 0.138857
2023/06/22 04:01:15.152, True, 1.657, 0.139315
2023/06/22 04:01:15.649, True, 1.684, 0.136873
2023/06/22 04:01:16.153, True, 1.658, 0.138705
2023/06/22 04:01:16.649, True, 1.686, 0.137942
2023/06/22 04:01:17.153, True, 1.658, 0.136950
2023/06/22 04:01:17.656, True, 1.989, 0.140230
2023/06/22 04:01:18.160, True, 1.656, 0.139773
2023/06/22 04:01:18.656, True, 1.687, 0.137636
2023/06/22 04:01:19.161, True, 1.656, 0.139544
2023/06/22 04:01:19.656, True, 1.688, 0.140002
2023/06/22 04:01:20.160, True, 1.655, 0.139391
2023/06/22 04:01:20.665, True, 1.660, 0.139849
2023/06/22 04:01:21.161, True, 1.685, 0.138476
2023/06/22 04:01:21.664, True, 1.990, 0.139849
2023/06/22 04:01:22.169, True, 1.656, 0.139773
2023/06/22 04:01:22.673, True, 1.658, 0.140383
2023/06/22 04:01:23.168, True, 1.685, 0.138170
2023/06/22 04:01:23.672, True, 1.660, 0.139620
2023/06/22 04:01:24.176, True, 1.657, 0.138170
2023/06/22 04:01:24.681, True, 1.657, 0.137484
2023/06/22 04:01:25.176, True, 1.683, 0.139010
2023/06/22 04:01:25.680, True, 1.659, 0.138857
2023/06/22 04:01:26.185, True, 1.658, 0.139925
2023/06/22 04:01:26.681, True, 2.021, 0.139239
2023/06/22 04:01:27.184, True, 1.658, 0.139239
2023/06/22 04:01:27.688, True, 1.660, 0.139086
2023/06/22 04:01:28.184, True, 1.683, 0.140307
2023/06/22 04:01:28.689, True, 1.657, 0.138247
2023/06/22 04:01:29.192, True, 1.659, 0.138552
2023/06/22 04:01:29.689, True, 1.349, 0.138018
2023/06/22 04:01:30.193, True, 1.655, 0.137255
2023/06/22 04:01:30.696, True, 1.660, 0.139773
2023/06/22 04:01:31.200, True, 1.659, 0.138781
2023/06/22 04:01:31.697, True, 1.683, 0.138476
2023/06/22 04:01:32.200, True, 1.658, 0.139925
2023/06/22 04:01:32.704, True, 1.659, 0.139849
2023/06/22 04:01:33.201, True, 1.683, 0.139467
2023/06/22 04:01:33.705, True, 1.660, 0.138933
2023/06/22 04:01:34.209, True, 1.655, 0.137713
2023/06/22 04:01:34.704, True, 1.350, 0.140612
2023/06/22 04:01:35.209, True, 1.991, 0.138705
2023/06/22 04:01:35.713, True, 1.655, 0.140002
2023/06/22 04:01:36.209, True, 1.348, 0.139925
2023/06/22 04:01:36.713, True, 1.661, 0.139239
2023/06/22 04:01:37.216, True, 1.655, 0.139544
2023/06/22 04:01:37.721, True, 1.658, 0.141146
2023/06/22 04:01:38.216, True, 1.685, 0.138628
2023/06/22 04:01:38.720, True, 1.659, 0.139010
2023/06/22 04:01:39.224, True, 1.660, 0.139773
2023/06/22 04:01:39.721, True, 1.682, 0.137026
2023/06/22 04:01:40.225, True, 1.658, 0.137179
2023/06/22 04:01:40.728, True, 1.657, 0.137942
2023/06/22 04:01:41.224, True, 1.686, 0.138705
2023/06/22 04:01:41.728, True, 1.660, 0.137942
2023/06/22 04:01:42.232, True, 1.657, 0.137789
2023/06/22 04:01:42.729, True, 1.686, 0.137636
2023/06/22 04:01:43.233, True, 1.656, 0.136416
2023/06/22 04:01:43.737, True, 1.660, 0.140383
2023/06/22 04:01:44.240, True, 1.658, 0.137636
2023/06/22 04:01:44.737, True, 1.348, 0.139849
2023/06/22 04:01:45.240, True, 1.989, 0.140078
2023/06/22 04:01:45.745, True, 1.327, 0.135882
2023/06/22 04:01:46.240, True, 1.683, 0.139696
2023/06/22 04:01:46.745, True, 1.988, 0.136950
2023/06/22 04:01:47.241, True, 1.688, 0.135882
2023/06/22 04:01:47.745, True, 1.656, 0.136950
2023/06/22 04:01:48.248, True, 1.658, 0.137255
2023/06/22 04:01:48.744, True, 1.684, 0.135958
2023/06/22 04:01:49.249, True, 1.660, 0.138857
2023/06/22 04:01:49.753, True, 1.657, 0.139391
2023/06/22 04:01:50.248, True, 1.683, 0.138628
2023/06/22 04:01:50.753, True, 1.661, 0.137789
2023/06/22 04:01:51.256, True, 1.655, 0.138781
2023/06/22 04:01:51.753, True, 1.685, 0.137179
2023/06/22 04:01:52.257, True, 1.661, 0.136416
2023/06/22 04:01:52.760, True, 1.655, 0.135958
2023/06/22 04:01:53.257, True, 1.684, 0.140078
2023/06/22 04:01:53.761, True, 1.659, 0.135958
2023/06/22 04:01:54.265, True, 1.657, 0.139239
2023/06/22 04:01:54.760, True, 1.686, 0.138781
2023/06/22 04:01:55.264, True, 1.657, 0.136339
2023/06/22 04:01:55.768, True, 1.991, 0.137484
2023/06/22 04:01:56.264, True, 1.687, 0.138552
2023/06/22 04:01:56.769, True, 1.657, 0.138018
2023/06/22 04:01:57.272, True, 1.658, 0.138094
2023/06/22 04:01:57.769, True, 1.684, 0.138857
2023/06/22 04:01:58.272, True, 1.658, 0.138018
2023/06/22 04:01:58.777, True, 1.657, 0.139315
2023/06/22 04:01:59.273, True, 1.685, 0.138628
2023/06/22 04:01:59.777, True, 1.658, 0.135882
2023/06/22 04:02:00.281, True, 1.990, 0.137179
2023/06/22 04:02:00.776, True, 1.685, 0.137636
2023/06/22 04:02:01.281, True, 1.658, 0.137407
2023/06/22 04:02:01.785, True, 1.326, 0.139162
2023/06/22 04:02:02.281, True, 1.686, 0.135576
2023/06/22 04:02:02.785, True, 1.660, 0.137942
2023/06/22 04:02:03.288, True, 1.987, 0.137179
2023/06/22 04:02:03.792, True, 1.657, 0.136721
2023/06/22 04:02:04.289, True, 1.350, 0.137331
2023/06/22 04:02:04.793, True, 1.988, 0.136416
2023/06/22 04:02:05.297, True, 1.657, 0.135958
2023/06/22 04:02:05.801, True, 1.326, 0.136339
2023/06/22 04:02:06.297, True, 1.686, 0.137636
2023/06/22 04:02:06.800, True, 1.657, 0.137026
2023/06/22 04:02:07.305, True, 1.659, 0.138781
2023/06/22 04:02:07.800, True, 1.684, 0.137255
2023/06/22 04:02:08.304, True, 1.657, 0.136721
2023/06/22 04:02:08.809, True, 1.660, 0.135653
2023/06/22 04:02:09.304, True, 1.684, 0.134890
2023/06/22 04:02:09.808, True, 1.659, 0.137636
2023/06/22 04:02:10.313, True, 1.656, 0.137865
2023/06/22 04:02:10.817, True, 1.661, 0.135882
2023/06/22 04:02:11.312, True, 1.681, 0.138170
2023/06/22 04:02:11.817, True, 1.662, 0.134279
2023/06/22 04:02:12.321, True, 1.656, 0.134203
2023/06/22 04:02:12.825, True, 1.658, 0.137179
2023/06/22 04:02:13.321, True, 1.346, 0.136034
2023/06/22 04:02:13.825, True, 1.659, 0.136034
2023/06/22 04:02:14.328, True, 1.659, 0.134813
2023/06/22 04:02:14.824, True, 1.686, 0.137026
2023/06/22 04:02:15.328, True, 1.327, 0.136721
2023/06/22 04:02:15.832, True, 1.657, 0.135195
2023/06/22 04:02:16.329, True, 1.684, 0.136339
2023/06/22 04:02:16.833, True, 1.657, 0.135119
2023/06/22 04:02:17.337, True, 1.990, 0.134966
2023/06/22 04:02:17.841, True, 1.659, 0.135119
2023/06/22 04:02:18.337, True, 1.346, 0.135348
2023/06/22 04:02:18.841, True, 1.659, 0.137636
2023/06/22 04:02:19.344, True, 1.657, 0.136873
2023/06/22 04:02:19.841, True, 1.687, 0.138399
2023/06/22 04:02:20.344, True, 1.657, 0.137942
2023/06/22 04:02:20.841, True, 1.684, 0.137026
2023/06/22 04:02:21.345, True, 1.990, 0.135882
2023/06/22 04:02:21.848, True, 1.658, 0.135729
2023/06/22 04:02:22.344, True, 1.688, 0.137636
2023/06/22 04:02:22.848, True, 1.655, 0.137026
2023/06/22 04:02:23.353, True, 1.657, 0.134585
2023/06/22 04:02:23.849, True, 1.686, 0.136873
2023/06/22 04:02:24.353, True, 1.659, 0.135882
2023/06/22 04:02:24.856, True, 1.659, 0.135195
2023/06/22 04:02:25.352, True, 1.346, 0.137407
2023/06/22 04:02:25.856, True, 1.658, 0.136416
2023/06/22 04:02:26.360, True, 1.989, 0.134585
2023/06/22 04:02:26.856, True, 1.686, 0.136568
2023/06/22 04:02:27.360, True, 1.657, 0.139086
2023/06/22 04:02:27.864, True, 1.658, 0.136797
2023/06/22 04:02:28.360, True, 1.686, 0.135042
2023/06/22 04:02:28.865, True, 1.658, 0.134661
2023/06/22 04:02:29.368, True, 1.660, 0.134890
2023/06/22 04:02:29.872, True, 1.655, 0.136568
2023/06/22 04:02:30.369, True, 1.687, 0.134737
2023/06/22 04:02:30.872, True, 1.655, 0.133898
2023/06/22 04:02:31.376, True, 1.661, 0.137560
2023/06/22 04:02:31.880, True, 1.658, 0.135271
2023/06/22 04:02:32.376, True, 1.685, 0.136492
2023/06/22 04:02:32.880, True, 1.655, 0.135500
2023/06/22 04:02:33.385, True, 1.661, 0.135195
2023/06/22 04:02:33.881, True, 1.683, 0.132830
2023/06/22 04:02:34.384, True, 1.657, 0.133440
2023/06/22 04:02:34.889, True, 1.994, 0.134737
2023/06/22 04:02:35.384, True, 1.683, 0.136339
2023/06/22 04:02:35.888, True, 1.657, 0.136034
2023/06/22 04:02:36.392, True, 1.658, 0.134966
2023/06/22 04:02:36.888, True, 1.687, 0.134661
2023/06/22 04:02:37.392, True, 1.657, 0.133440
2023/06/22 04:02:37.896, True, 1.658, 0.135195
2023/06/22 04:02:38.392, True, 1.685, 0.136568
2023/06/22 04:02:38.896, True, 1.658, 0.137636
2023/06/22 04:02:39.400, True, 1.326, 0.134585
2023/06/22 04:02:39.905, True, 1.657, 0.137026
2023/06/22 04:02:40.400, True, 2.023, 0.135576
2023/06/22 04:02:40.904, True, 1.659, 0.133516
2023/06/22 04:02:41.408, True, 1.656, 0.134737
2023/06/22 04:02:41.904, True, 1.686, 0.135042
2023/06/22 04:02:42.408, True, 1.657, 0.135042
2023/06/22 04:02:42.913, True, 1.660, 0.136110
2023/06/22 04:02:43.409, True, 2.021, 0.134585
2023/06/22 04:02:43.913, True, 1.659, 0.135882
2023/06/22 04:02:44.416, True, 1.657, 0.133822
2023/06/22 04:02:44.913, True, 1.348, 0.133516
2023/06/22 04:02:45.416, True, 1.659, 0.135805
2023/06/22 04:02:45.920, True, 1.658, 0.136034
2023/06/22 04:02:46.424, True, 1.657, 0.136034
2023/06/22 04:02:46.920, True, 1.686, 0.136797
2023/06/22 04:02:47.424, True, 1.658, 0.134966
2023/06/22 04:02:47.929, True, 1.655, 0.133974
2023/06/22 04:02:48.424, True, 1.685, 0.134127
2023/06/22 04:02:48.929, True, 1.658, 0.135042
2023/06/22 04:02:49.433, True, 1.659, 0.133288
2023/06/22 04:02:49.928, True, 2.023, 0.135424
2023/06/22 04:02:50.432, True, 1.655, 0.134432
2023/06/22 04:02:50.936, True, 1.662, 0.132372
2023/06/22 04:02:51.432, True, 1.683, 0.133516
2023/06/22 04:02:51.937, True, 1.657, 0.135882
2023/06/22 04:02:52.441, True, 1.657, 0.133822
2023/06/22 04:02:52.944, True, 1.658, 0.133974
2023/06/22 04:02:53.440, True, 1.688, 0.131456
2023/06/22 04:02:53.944, True, 1.655, 0.133898
2023/06/22 04:02:54.448, True, 1.660, 0.132906
2023/06/22 04:02:54.945, True, 1.686, 0.135348
2023/06/22 04:02:55.448, True, 1.987, 0.133516
2023/06/22 04:02:55.952, True, 1.658, 0.133745
2023/06/22 04:02:56.448, True, 1.685, 0.133898
2023/06/22 04:02:56.953, True, 1.657, 0.134127
2023/06/22 04:02:57.457, True, 1.659, 0.132677
2023/06/22 04:02:57.953, True, 1.684, 0.135424
2023/06/22 04:02:58.456, True, 1.660, 0.134508
2023/06/22 04:02:58.960, True, 1.657, 0.133669
2023/06/22 04:02:59.456, True, 1.683, 0.134966
2023/06/22 04:02:59.961, True, 1.660, 0.135882
2023/06/22 04:03:00.464, True, 1.656, 0.133974
2023/06/22 04:03:00.968, True, 1.329, 0.134127
2023/06/22 04:03:01.464, True, 1.685, 0.133135
2023/06/22 04:03:01.969, True, 1.655, 0.133059
2023/06/22 04:03:02.472, True, 1.660, 0.135119
2023/06/22 04:03:02.969, True, 1.683, 0.134737
2023/06/22 04:03:03.473, True, 1.327, 0.134432
2023/06/22 04:03:03.976, True, 1.660, 0.131685
2023/06/22 04:03:04.472, True, 1.682, 0.133669
2023/06/22 04:03:04.976, True, 1.660, 0.135500
2023/06/22 04:03:05.481, True, 1.988, 0.134279
2023/06/22 04:03:05.976, True, 1.687, 0.133211
2023/06/22 04:03:06.481, True, 1.656, 0.133669
2023/06/22 04:03:06.985, True, 1.660, 0.135576
2023/06/22 04:03:07.480, True, 1.686, 0.132448
2023/06/22 04:03:07.985, True, 1.655, 0.134585
2023/06/22 04:03:08.489, True, 1.658, 0.133745
2023/06/22 04:03:08.984, True, 1.347, 0.132830
2023/06/22 04:03:09.488, True, 1.661, 0.132753
2023/06/22 04:03:09.992, True, 1.657, 0.132448
2023/06/22 04:03:10.489, True, 1.685, 0.136034
2023/06/22 04:03:10.993, True, 1.658, 0.134356
2023/06/22 04:03:11.496, True, 1.658, 0.135042
2023/06/22 04:03:12.001, True, 1.655, 0.132677
2023/06/22 04:03:12.497, True, 1.686, 0.132601
2023/06/22 04:03:13.000, True, 1.658, 0.132372
2023/06/22 04:03:13.504, True, 1.659, 0.135424
2023/06/22 04:03:13.000, True, 1.685, 0.135882
2023/06/22 04:03:14.504, True, 1.657, 0.133974
2023/06/22 04:03:15.008, True, 1.656, 0.133974
2023/06/22 04:03:15.504, True, 1.348, 0.135500
2023/06/22 04:03:16.008, True, 1.659, 0.134127
2023/06/22 04:03:16.512, True, 1.659, 0.132753
2023/06/22 04:03:17.016, True, 1.658, 0.133288
2023/06/22 04:03:17.512, True, 1.345, 0.131762
2023/06/22 04:03:18.016, True, 1.659, 0.132067
2023/06/22 04:03:18.520, True, 1.660, 0.133974
2023/06/22 04:03:19.016, True, 1.683, 0.133059
2023/06/22 04:03:19.521, True, 1.658, 0.131685
2023/06/22 04:03:20.016, True, 1.686, 0.134813
2023/06/22 04:03:20.520, True, 1.658, 0.132448
2023/06/22 04:03:21.024, True, 1.658, 0.134585
2023/06/22 04:03:21.520, True, 1.682, 0.133364
2023/06/22 04:03:22.024, True, 1.662, 0.132525
2023/06/22 04:03:22.528, True, 1.656, 0.133593
2023/06/22 04:03:23.025, True, 1.684, 0.131914
2023/06/22 04:03:23.528, True, 1.659, 0.134737
2023/06/22 04:03:24.032, True, 1.657, 0.134737
2023/06/22 04:03:24.528, True, 1.684, 0.133288
2023/06/22 04:03:25.033, True, 1.326, 0.134813
2023/06/22 04:03:25.537, True, 1.989, 0.133745
2023/06/22 04:03:26.032, True, 1.686, 0.133974
2023/06/22 04:03:26.537, True, 1.657, 0.133593
2023/06/22 04:03:27.041, True, 1.326, 0.132906
2023/06/22 04:03:27.545, True, 1.659, 0.132448
2023/06/22 04:03:28.041, True, 1.686, 0.132906
2023/06/22 04:03:28.544, True, 1.657, 0.134356
2023/06/22 04:03:29.048, True, 1.656, 0.130617
2023/06/22 04:03:29.544, True, 1.685, 0.131685
2023/06/22 04:03:30.048, True, 1.658, 0.134203
2023/06/22 04:03:30.553, True, 1.658, 0.133440
2023/06/22 04:03:31.048, True, 1.684, 0.132525
2023/06/22 04:03:31.552, True, 1.660, 0.131151
2023/06/22 04:03:32.057, True, 1.656, 0.130770
2023/06/22 04:03:32.553, True, 1.685, 0.132906
2023/06/22 04:03:33.056, True, 1.660, 0.133593
2023/06/22 04:03:33.560, True, 1.660, 0.133516
2023/06/22 04:03:34.064, True, 1.985, 0.134203
2023/06/22 04:03:34.560, True, 1.687, 0.132525
2023/06/22 04:03:35.065, True, 1.656, 0.132677
2023/06/22 04:03:35.568, True, 1.660, 0.133211
2023/06/22 04:03:36.065, True, 1.685, 0.132906
2023/06/22 04:03:36.569, True, 1.660, 0.132601
2023/06/22 04:03:37.072, True, 1.656, 0.131380
2023/06/22 04:03:37.568, True, 1.685, 0.130846
2023/06/22 04:03:38.072, True, 1.656, 0.132448
2023/06/22 04:03:38.576, True, 1.658, 0.133516
2023/06/22 04:03:39.073, True, 1.685, 0.134127
2023/06/22 04:03:39.577, True, 1.990, 0.133669
2023/06/22 04:03:40.081, True, 1.657, 0.133440
2023/06/22 04:03:40.577, True, 1.688, 0.132219
2023/06/22 04:03:41.081, True, 1.656, 0.130312
2023/06/22 04:03:41.585, True, 1.660, 0.130846
2023/06/22 04:03:42.088, True, 1.655, 0.131609
2023/06/22 04:03:42.584, True, 1.687, 0.133135
2023/06/22 04:03:43.088, True, 1.659, 0.131609
2023/06/22 04:03:43.593, True, 1.657, 0.134051
2023/06/22 04:03:44.097, True, 1.659, 0.131456
2023/06/22 04:03:44.592, True, 1.684, 0.131762
2023/06/22 04:03:45.096, True, 1.656, 0.132296
2023/06/22 04:03:45.600, True, 1.661, 0.133516
2023/06/22 04:03:46.096, True, 1.683, 0.132830
2023/06/22 04:03:46.601, True, 1.659, 0.131991
2023/06/22 04:03:47.104, True, 1.988, 0.131914
2023/06/22 04:03:47.601, True, 1.683, 0.132143
2023/06/22 04:03:48.104, True, 1.662, 0.131685
2023/06/22 04:03:48.608, True, 1.657, 0.133745
2023/06/22 04:03:49.104, True, 1.682, 0.133364
2023/06/22 04:03:49.608, True, 1.329, 0.132143
2023/06/22 04:03:50.112, True, 1.657, 0.131762
2023/06/22 04:03:50.608, True, 1.686, 0.132448
2023/06/22 04:03:51.112, True, 1.658, 0.131914
2023/06/22 04:03:51.616, True, 1.655, 0.132753
2023/06/22 04:03:52.112, True, 1.688, 0.132906
2023/06/22 04:03:52.616, True, 1.658, 0.133822
2023/06/22 04:03:53.120, True, 1.656, 0.131685
2023/06/22 04:03:53.616, True, 2.025, 0.132982
2023/06/22 04:03:54.121, True, 1.657, 0.132677
2023/06/22 04:03:54.624, True, 1.657, 0.131456
2023/06/22 04:03:55.120, True, 1.684, 0.132296
2023/06/22 04:03:55.624, True, 1.658, 0.132525
2023/06/22 04:03:56.128, True, 1.657, 0.133593
2023/06/22 04:03:56.624, True, 1.686, 0.131075
2023/06/22 04:03:57.128, True, 1.658, 0.135882
2023/06/22 04:03:57.633, True, 1.657, 0.131991
2023/06/22 04:03:58.136, True, 1.658, 0.131838
2023/06/22 04:03:58.641, True, 1.658, 0.132525
2023/06/22 04:03:59.136, True, 1.686, 0.131838
2023/06/22 04:03:59.641, True, 1.657, 0.130083
2023/06/22 04:04:00.144, True, 1.658, 0.131914
2023/06/22 04:04:00.640, True, 1.687, 0.132296
2023/06/22 04:04:01.144, True, 1.656, 0.133059
2023/06/22 04:04:01.648, True, 1.661, 0.132830
2023/06/22 04:04:02.144, True, 1.683, 0.131609
2023/06/22 04:04:02.648, True, 1.658, 0.132830
2023/06/22 04:04:03.153, True, 1.659, 0.131228
2023/06/22 04:04:03.649, True, 2.020, 0.131991
2023/06/22 04:04:04.153, True, 1.658, 0.129702
2023/06/22 04:04:04.656, True, 1.327, 0.133288
2023/06/22 04:04:05.152, True, 1.688, 0.130770
2023/06/22 04:04:05.656, True, 1.656, 0.131380
2023/06/22 04:04:06.160, True, 1.657, 0.130388
2023/06/22 04:04:06.656, True, 1.687, 0.130999
2023/06/22 04:04:07.160, True, 1.656, 0.133059
2023/06/22 04:04:07.664, True, 1.661, 0.130617
2023/06/22 04:04:08.160, True, 1.684, 0.130694
2023/06/22 04:04:08.664, True, 1.656, 0.129625
2023/06/22 04:04:09.168, True, 1.659, 0.129931
2023/06/22 04:04:09.664, True, 2.021, 0.132525
2023/06/22 04:04:10.168, True, 1.658, 0.130236
2023/06/22 04:04:10.672, True, 1.326, 0.130694